Home   Weather   Sacramento   Past weeks

Flag for USA Past Weather in Sacramento, California, USA — Yesterday and Last 2 Weeks

Now
38 °F

Clear.


Feels Like: 34 °F
Forecast: 34 / 57 °F
Wind: 5 mph from West

Location: Sacramento Executive Airport

Current Time: Feb 28, 2017 at 2:17:44 am

Latest Report: Feb 28, 2017 at 12:53 am


Visibility: 10 mi

Pressure: 30.01 "Hg

Humidity: 97%

Dew Point: 37 °F

Location of SacramentoLocation

Past Weather in Sacramento — Graph

°F

Sacramento Temperature Yesterday

Maximum temperature yesterday: 56 °F (at 2:53 pm)
Minimum temperature yesterday: 37 °F (at 6:53 am)
Average temperature yesterday: 46 °F

High & Low Weather Summary for the Past Weeks

 TemperatureHumidityPressure
High67 °F (Feb 14, 2:53 pm)100% (Feb 13, 3:53 am)30.28 "Hg (Feb 13, 3:53 am)
Low33 °F (Feb 23, 6:53 am)37% (Feb 27, 3:53 pm)29.21 "Hg (Feb 17, 6:53 pm)
Average50 °F82%29.97 "Hg
* Reported Feb 13 12:53 am — Feb 28 12:53 am, Sacramento, Weather by CustomWeather, © 2017

Note: Actual official high and low records may vary slightly from our data, if they occured in-between our weather recording intervals... More about our weather records

Advertising

Sacramento Weather History for the Previous 24 Hours

Scroll right to see more
 ConditionsComfort  
Time TempWeatherWind HumidityBarometerVisibility
12:53 am
Tue, Feb 28
38 °FClear.5 mph97%30.01 "Hg10 mi
11:53 pm
Mon, Feb 27
38 °FClear.No wind93%30.00 "Hg10 mi
10:53 pm39 °FClear.No wind86%29.99 "Hg10 mi
9:53 pm42 °FClear.No wind76%29.98 "Hg10 mi
8:53 pm44 °FClear.No wind73%29.96 "Hg10 mi
7:53 pm44 °FClear.No wind65%29.95 "Hg10 mi
6:53 pm47 °FClear.No wind61%29.94 "Hg10 mi
5:53 pm50 °FSunny.5 mph54%29.93 "Hg10 mi
4:53 pm53 °FSunny.7 mph47%29.93 "Hg10 mi
3:53 pm54 °FSunny.7 mph37%29.93 "Hg10 mi
2:53 pm56 °FSunny.6 mph40%29.93 "Hg10 mi
1:53 pm53 °FSunny.3 mph47%29.94 "Hg10 mi
12:53 pm54 °FSunny.3 mph51%29.96 "Hg10 mi
11:53 am51 °FSunny.3 mph61%29.98 "Hg10 mi
10:53 am51 °FSunny.5 mph61%29.98 "Hg10 mi
9:53 am50 °FSunny.9 mph63%29.98 "Hg10 mi
8:53 am47 °FSunny.3 mph71%29.97 "Hg10 mi
7:53 am43 °FSunny.No wind97%29.95 "Hg10 mi
6:53 am37 °FFog.No wind100%29.93 "Hg4 mi
5:53 am41 °FClear.No wind96%29.92 "Hg10 mi
4:53 am42 °FPassing clouds.6 mph96%29.90 "Hg10 mi
3:53 am43 °FPassing clouds.5 mph97%29.89 "Hg10 mi
2:53 am44 °FPassing clouds.8 mph93%29.90 "Hg10 mi
Weather by CustomWeather, © 2017

See weather overviewHow to use our weather pages